User: anonymous   Login
Location: Montr�al
(45.5000°N, 73.5830°W)
Time: 16:04:44
(UTC-04:00)
Language:

Cosmos 2369 - Orbit

View from above orbital plane
View from above orbital plane
View from above satellite
View from above satellite

Ground track
Ground track

The orbit data is extracted from the following two-line orbital elements,

1 26069U 00006A   15089.55551606 -.00000099  00000-0 -27274-4 0  9991
2 26069 070.9962 255.0640 0011307 003.3252 059.4698 14.13296422781738
Epoch (UTC): 30 March 2015 13:19:56
Eccentricity: 0.0011307
inclination: 70.9962°
perigee height: 840 km
apogee height: 856 km
right ascension of ascending node: 255.0640°
argument of perigee: 3.3252°
revolutions per day: 14.13296422
mean anomaly at epoch: 59.4698°
orbit number at epoch: 78173

The dashed part of the orbit path shows where the satellite is in the earth's shadow,  

DLR